Location: Newark
(45.4422°N, 16.2769°E)
Time: 15:02:16
(UTC+00:00)

Tiros 1 despin weight - Pass Details

Date: 24 December 2019
Orbit: 594 x 642 km, 48.2° (Epoch: 26 January)

Event Time Altitude Azimuth Distance (km) Brightness Sun altitude
Rises 05:19:32 0° 285° (WNW) 2,885 - -12.3°
Reaches altitude 10° 05:22:25 10° 267° (W) 1,966 - -11.8°
Exits shadow 05:23:01 12° 261° (W) 1,810 ? -11.7°
Maximum altitude 05:25:32 19° 223° (SW) 1,472 ? -11.3°
Drops below altitude 10° 05:28:37 10° 179° (S) 1,938 ? -10.8°
Sets 05:31:26 0° 160° (SSE) 2,828 ? -10.3°
